Torna al catalogo

STARLINK-35886

AttivoComunicazioniVLEO
NORAD 66838·PAYLOAD·🇺🇸 United States

Lanciato Dec 2, 2025 da Vandenberg Space Force Base

Loading…

Prossimi Passaggi (prossime 24 ore)

TLE

AggiornatoSource: CelesTrak SupGP

Epoca: Sep 15, 2026, 03:14 UTC

1 66838C 25280T   26258.13520833 -.00020790  00000+0 -17423-2 0  2582
2 66838  70.0013 216.6809 0003005 271.4877 165.4326 14.98340591    12

Traccia STARLINK-35886 in tempo reale con AllMySat

Download on the App Store